Погода в Кокпектах

Казахстан     48°45′15″N   82°23′08″E
темп.,
°C
ветер,
м/с
пор.,
м/с
влажн.,
%
обл.,
%
осадки,
мм/ч
давл.,
гПа
погр.,
м
2 марта, вт
вт200:00−6вюв3797100 4.5 1022362
03:00−6вюв3696100 2.9 1021331
06:00−6вюв2597100 7.0 1021269
09:00−6вюв3596100 2.7 1021360
12:00−5юв4696100 3.9 1020400
15:00−4юв4696100 1.4 1018412
18:00−5юв4997100 3.4 1017470
21:00−5вюв2597100 3.6 1017263
3 марта, ср
ср300:00−5вюв1297100 6.2 101784
03:00−6ююв1196100 1.0 101921
06:00−7з2390100 1.0 102146
09:00−7з3789100 0.0 1023166
12:00−5з488283 0.0 1024787
15:00−5з38840 0.0 1025733
18:00−10з33830 0.0 102721
21:00−14сз338412 0.0 103020
4 марта, чт
чт400:00−17с128732 0.0 103120
03:00−17ссз12880 0.0 103120
06:00−19ссв11910 0.0 103220
09:00−15ссз11850 0.0 103220
12:00−11юв12800 0.0 1031169
15:00−9вюв23840 0.0 1029268
18:00−13в22880 0.0 102921
21:00−16всв12849 0.0 102920
5 марта, пт
пт500:00−16вюв128232 0.0 102720
03:00−14в238379 0.0 102322
06:00−15св118190 0.0 102120
09:00−9вюв51687100 0.1 1019645
12:00−6юв71290100 0.8 1022503
15:00−4сз2293100 1.6 1027251
18:00−5зсз348979 1.6 103359
21:00−9юз119544 0.0 103621
6 марта, сб
сб600:00−11всв119857 0.1 103621
03:00−12в229783 0.0 103521
06:00−10всв119892 0.1 103423
09:00−7вюв3496100 0.1 1032230
12:00−6вюв3593100 0.2 1030404
15:00−6вюв238999 0.1 1027298
18:00−9ссв228793 0.1 102721
21:00−10ссв228343 0.0 102621